Time[GMT],current_speed[cm/s](2m),current_direction[angular_degrees](2m),temperature[C](2m),current_u[cm/s](2m),current_v[cm/s](2m)
2006-04-10 14:00,20.82,201.7,4.77,-7.70,-19.35
2006-04-10 15:00,18.77,197.1,4.84,-5.53,-17.94
2006-04-10 16:00,20.53,185.5,4.97,-1.97,-20.44
2006-04-10 17:00,14.66,179.2,4.90,0.21,-14.66
2006-04-10 18:00,7.63,158.1,5.36,2.85,-7.08
2006-04-10 19:00,9.09,129.6,5.42,7.00,-5.80
2006-04-10 20:00,9.68,67.0,5.58,8.91,3.78
2006-04-10 21:00,13.49,70.2,5.48,12.69,4.57
2006-04-10 22:00,9.09,78.6,5.42,8.91,1.79
2006-04-10 23:00,15.84,87.8,5.29,15.83,0.62
2006-04-11 00:00,16.42,93.4,5.10,16.40,-0.97
2006-04-11 01:00,13.79,112.4,5.06,12.75,-5.25
2006-04-11 02:00,16.13,129.6,5.06,12.43,-10.29
2006-04-11 03:00,17.60,145.4,5.06,9.98,-14.49
2006-04-11 04:00,23.46,155.3,5.13,9.81,-21.31
2006-04-11 05:00,31.97,162.3,5.16,9.71,-30.46
2006-04-11 06:00,27.86,167.9,5.23,5.82,-27.25
2006-04-11 07:00,24.34,173.2,5.61,2.88,-24.17
2006-04-11 08:00,24.34,189.7,5.45,-4.12,-23.99
2006-04-11 09:00,24.34,203.8,5.39,-9.82,-22.27
2006-04-11 10:00,29.92,214.7,5.10,-17.03,-24.60
2006-04-11 11:00,24.34,241.8,4.90,-21.45,-11.51
2006-04-11 12:00,24.93,240.4,5.00,-21.67,-12.33
2006-04-11 13:00,22.00,233.0,4.93,-17.56,-13.24
2006-04-11 14:00,19.06,222.1,5.03,-12.78,-14.15
2006-04-11 15:00,14.66,200.3,5.10,-5.08,-13.76
2006-04-11 16:00,15.84,188.7,5.13,-2.39,-15.66
2006-04-11 17:00,19.65,164.4,5.16,5.28,-18.93
2006-04-11 18:00,14.66,160.9,5.39,4.80,-13.86
2006-04-11 19:00,14.66,149.3,5.48,7.49,-12.61
2006-04-11 20:00,14.08,129.3,5.45,10.90,-8.91
2006-04-11 21:00,14.37,120.5,5.71,12.39,-7.29
2006-04-11 22:00,14.37,134.5,5.55,10.24,-10.08
2006-04-11 23:00,16.42,159.5,5.55,5.75,-15.38
2006-04-12 00:00,20.82,169.7,5.45,3.72,-20.49
2006-04-12 01:00,26.40,179.9,5.48,0.05,-26.40
2006-04-12 02:00,31.68,190.8,5.39,-5.93,-31.12
2006-04-12 03:00,31.68,193.3,5.42,-7.26,-30.83
2006-04-12 04:00,34.90,212.9,5.10,-18.98,-29.29
2006-04-12 05:00,33.73,215.1,5.16,-19.37,-27.61
2006-04-12 06:00,33.73,218.2,5.36,-20.87,-26.50
2006-04-12 07:00,28.74,226.0,5.39,-20.66,-19.98
2006-04-12 08:00,30.80,235.4,5.23,-25.36,-17.47
2006-04-12 09:00,32.56,254.8,5.36,-31.41,-8.54
2006-04-12 10:00,30.80,251.6,5.42,-29.23,-9.71
2006-04-12 11:00,28.45,249.9,5.42,-26.71,-9.80
2006-04-12 12:00,16.13,239.3,5.42,-13.87,-8.23
2006-04-12 13:00,13.20,237.2,5.55,-11.09,-7.15
2006-04-12 14:00,5.57,255.1,5.58,-5.39,-1.43
2006-04-12 15:00,8.80,273.4,5.55,-8.78,0.52
2006-04-12 16:00,7.33,230.9,5.68,-5.69,-4.63
2006-04-12 17:00,9.68,185.9,5.71,-0.99,-9.63
2006-04-12 18:00,5.57,154.6,5.71,2.39,-5.03
2006-04-12 19:00,1.76,356.0,5.74,-0.12,1.76
2006-04-12 20:00,7.33,240.4,5.48,-6.37,-3.63
2006-04-12 21:00,3.23,244.2,5.55,-2.91,-1.40
2006-04-12 22:00,10.56,291.7,5.52,-9.81,3.90
2006-04-12 23:00,5.87,299.4,5.52,-5.11,2.88
2006-04-13 00:00,12.03,314.6,5.58,-8.57,8.44
2006-04-13 01:00,4.99,345.8,5.61,-1.22,4.83
2006-04-13 02:00,0.88,318.1,5.61,-0.59,0.65
2006-04-13 04:00,10.27,98.7,5.61,10.15,-1.55
2006-04-13 05:00,13.49,105.7,5.48,12.99,-3.65
2006-04-13 06:00,19.36,116.6,5.26,17.31,-8.67
2006-04-13 07:00,19.65,118.0,5.36,17.35,-9.23
2006-04-13 08:00,9.39,122.2,5.29,7.94,-5.01
2006-04-13 09:00,9.09,144.7,5.26,5.25,-7.42
2006-04-13 10:00,6.16,183.1,5.29,-0.33,-6.15
2006-04-13 11:00,9.97,311.0,5.29,-7.52,6.55
2006-04-13 12:00,12.32,320.2,5.16,-7.89,9.46
2006-04-13 13:00,16.72,305.4,5.13,-13.63,9.69
2006-04-13 14:00,9.39,1.3,5.16,0.21,9.38
2006-04-13 15:00,5.28,353.9,5.23,-0.56,5.25
2006-04-13 16:00,4.40,145.8,5.26,2.47,-3.64
2006-04-13 17:00,8.51,107.1,5.32,8.13,-2.50
2006-04-13 18:00,12.61,116.3,5.45,11.31,-5.58
2006-04-13 19:00,17.60,117.0,5.61,15.69,-7.98
2006-04-13 20:00,12.03,127.2,5.61,9.58,-7.26
2006-04-13 21:00,9.09,116.6,5.55,8.13,-4.07
2006-04-13 22:00,3.52,133.8,5.52,2.54,-2.44
2006-04-13 23:00,1.17,182.7,5.48,-0.06,-1.17
2006-04-14 00:00,3.52,345.8,5.65,-0.86,3.41
2006-04-14 01:00,4.69,322.3,5.68,-2.87,3.71
2006-04-14 02:00,2.64,314.6,5.61,-1.88,1.85
2006-04-14 03:00,7.92,214.0,5.68,-4.43,-6.57
2006-04-14 04:00,14.37,180.9,5.68,-0.24,-14.37
2006-04-14 05:00,24.34,199.2,5.45,-8.02,-22.99
2006-04-14 06:00,20.82,226.0,5.55,-14.97,-14.48
2006-04-14 07:00,22.88,241.8,5.61,-20.16,-10.82
2006-04-14 08:00,19.94,241.8,5.61,-17.57,-9.43
2006-04-14 09:00,20.82,261.5,5.61,-20.59,-3.09
2006-04-14 10:00,17.30,274.5,5.58,-17.25,1.35
2006-04-14 11:00,15.84,284.0,5.58,-15.37,3.82
2006-04-14 12:00,17.30,293.1,5.55,-15.92,6.79
2006-04-14 13:00,22.29,308.6,5.55,-17.43,13.90
2006-04-14 14:00,17.30,317.4,5.55,-11.72,12.73
2006-04-14 15:00,9.97,306.5,5.61,-8.02,5.93
2006-04-14 16:00,8.51,317.0,5.84,-5.80,6.22
2006-04-14 17:00,5.87,323.0,6.10,-3.53,4.68
2006-04-14 18:00,8.51,31.9,6.00,4.49,7.22
2006-04-14 19:00,5.57,35.7,6.00,3.25,4.52
2006-04-14 20:00,7.33,48.7,5.91,5.51,4.84
2006-04-14 21:00,8.80,48.4,5.87,6.58,5.84
2006-04-14 22:00,9.39,16.8,5.91,2.70,8.99
2006-04-14 23:00,7.33,350.4,5.87,-1.23,7.23
2006-04-15 00:00,11.44,346.2,5.87,-2.74,11.11
2006-04-15 01:00,14.66,347.9,5.87,-3.07,14.34
2006-04-15 02:00,16.42,321.6,6.00,-10.21,12.87
2006-04-15 03:00,8.80,320.9,5.87,-5.55,6.83
2006-04-15 04:00,8.51,287.1,5.87,-8.13,2.51
2006-04-15 05:00,13.49,274.1,5.94,-13.46,0.97
2006-04-15 06:00,4.40,275.2,5.87,-4.38,0.40
2006-04-15 07:00,1.47,318.1,5.87,-0.98,1.09
2006-04-15 08:00,4.11,234.0,5.87,-3.32,-2.41
2006-04-15 09:00,0.00,176.0,5.87,0.00,-0.00
2006-04-15 10:00,3.81,225.6,5.87,-2.72,-2.67
2006-04-15 11:00,5.87,285.0,5.81,-5.67,1.52
2006-04-15 12:00,13.20,310.3,5.81,-10.06,8.54
2006-04-15 13:00,12.91,311.7,5.84,-9.63,8.59
2006-04-15 14:00,19.36,333.9,5.81,-8.52,17.38
2006-04-15 15:00,14.08,325.5,5.81,-7.98,11.60
2006-04-15 16:00,9.39,350.0,5.84,-1.63,9.24
2006-04-15 17:00,11.15,359.5,5.94,-0.09,11.15
2006-04-15 18:00,7.92,29.1,6.10,3.85,6.92
2006-04-15 19:00,9.09,63.9,6.07,8.16,4.01
2006-04-15 20:00,10.85,56.8,6.10,9.08,5.94
2006-04-15 21:00,14.37,42.8,6.13,9.76,10.55
2006-04-15 22:00,7.33,99.0,6.13,7.24,-1.15
2006-04-15 23:00,2.64,199.6,6.10,-0.88,-2.49
2006-04-16 00:00,11.44,210.5,6.10,-5.80,-9.86
2006-04-16 01:00,11.44,248.5,6.10,-10.64,-4.20
2006-04-16 02:00,12.91,266.0,6.07,-12.87,-0.89
2006-04-16 03:00,12.91,247.4,6.10,-11.91,-4.96
2006-04-16 04:00,12.91,233.7,6.10,-10.40,-7.64
2006-04-16 05:00,16.42,244.9,6.10,-14.88,-6.96
2006-04-16 06:00,11.73,227.0,6.10,-8.58,-8.00
2006-04-16 07:00,6.75,227.7,6.07,-4.99,-4.54
2006-04-16 08:00,8.21,172.5,6.10,1.07,-8.14
2006-04-16 09:00,12.32,144.4,6.07,7.17,-10.01
2006-04-16 10:00,13.79,135.9,6.03,9.59,-9.91
2006-04-16 11:00,16.42,145.4,6.00,9.32,-13.53
2006-04-16 12:00,19.36,155.6,6.00,7.99,-17.63
2006-04-16 13:00,16.13,174.3,6.00,1.61,-16.05
2006-04-16 14:00,17.30,183.8,6.07,-1.13,-17.27
2006-04-16 15:00,14.96,199.6,6.13,-5.01,-14.09
2006-04-16 16:00,18.48,199.9,6.23,-6.30,-17.37
2006-04-16 17:00,25.81,171.8,6.16,3.68,-25.55
2006-04-16 18:00,25.81,176.0,6.29,1.79,-25.75
2006-04-16 19:00,28.45,187.3,6.39,-3.60,-28.22
2006-04-16 20:00,30.80,182.4,6.36,-1.26,-30.77
2006-04-16 21:00,24.93,188.7,6.29,-3.76,-24.64
2006-04-16 22:00,29.92,198.9,6.55,-9.68,-28.31
2006-04-16 23:00,26.40,224.9,6.20,-18.63,-18.70
2006-04-17 00:00,25.22,257.2,6.42,-24.60,-5.57
2006-04-17 01:00,27.28,255.5,6.39,-26.41,-6.84
2006-04-17 02:00,22.58,254.8,6.26,-21.79,-5.93
2006-04-17 03:00,16.72,254.1,6.26,-16.08,-4.59
2006-04-17 04:00,13.20,281.2,6.23,-12.95,2.55
2006-04-17 05:00,7.33,287.5,6.23,-6.99,2.20
2006-04-17 06:00,6.45,64.6,6.23,5.83,2.77
2006-04-17 07:00,15.25,131.7,6.20,11.38,-10.15
2006-04-17 08:00,27.86,140.9,6.20,17.59,-21.61
2006-04-17 09:00,30.80,149.0,6.16,15.88,-26.38
2006-04-17 10:00,33.73,157.4,6.16,12.97,-31.14
2006-04-17 11:00,29.62,177.1,6.13,1.51,-29.58
2006-04-17 12:00,31.09,184.8,6.13,-2.61,-30.98
2006-04-17 13:00,25.22,219.6,6.16,-16.09,-19.43
2006-04-17 14:00,28.74,232.3,6.36,-22.74,-17.58
2006-04-17 15:00,30.21,249.2,6.49,-28.23,-10.75
2006-04-17 16:00,25.81,288.2,6.33,-24.52,8.06
2006-04-17 17:00,20.24,301.5,6.45,-17.25,10.59
2006-04-17 18:00,11.44,302.6,6.52,-9.64,6.16
2006-04-17 19:00,4.11,44.5,6.55,2.88,2.93
2006-04-17 20:00,4.99,106.1,6.71,4.79,-1.38
2006-04-17 21:00,5.87,132.1,7.23,4.35,-3.93
2006-04-17 22:00,25.52,171.1,6.90,3.95,-25.21
2006-04-17 23:00,25.52,170.4,6.58,4.26,-25.16
2006-04-18 00:00,30.80,179.5,6.62,0.25,-30.80
2006-04-18 01:00,34.32,179.9,6.55,0.06,-34.32
2006-04-18 02:00,23.76,193.3,6.42,-5.45,-23.12
2006-04-18 03:00,32.56,210.5,6.36,-16.51,-28.06
2006-04-18 04:00,39.89,219.3,6.42,-25.25,-30.88
2006-04-18 05:00,40.18,224.2,6.45,-28.01,-28.81
2006-04-18 06:00,39.60,227.4,6.49,-29.13,-26.82
2006-04-18 07:00,37.25,217.5,6.45,-22.68,-29.55
2006-04-18 08:00,32.56,225.6,6.55,-23.26,-22.78
2006-04-18 09:00,31.68,221.4,6.58,-20.94,-23.77
2006-04-18 10:00,22.29,237.9,6.62,-18.88,-11.84
2006-04-18 11:00,20.82,252.7,6.65,-19.88,-6.20
2006-04-18 12:00,12.91,261.8,6.62,-12.77,-1.84
2006-04-18 13:00,4.99,197.1,6.65,-1.47,-4.77
2006-04-18 14:00,10.85,239.3,6.74,-9.33,-5.54
2006-04-18 15:00,7.63,244.9,6.84,-6.91,-3.23
2006-04-18 16:00,13.49,241.1,6.84,-11.81,-6.53
2006-04-18 17:00,13.79,241.8,6.90,-12.15,-6.52
2006-04-18 18:00,17.60,230.2,7.13,-13.51,-11.27
2006-04-18 19:00,13.20,241.4,6.94,-11.59,-6.31
2006-04-18 20:00,18.18,203.4,6.94,-7.24,-16.68
2006-04-18 21:00,15.84,192.2,6.90,-3.35,-15.48
2006-04-18 22:00,14.37,196.4,6.94,-4.06,-13.79
2006-04-18 23:00,14.37,202.4,6.90,-5.48,-13.29
2006-04-19 00:00,7.04,196.8,6.94,-2.03,-6.74
2006-04-19 01:00,8.21,232.3,6.94,-6.50,-5.02
2006-04-19 02:00,8.21,222.4,6.94,-5.54,-6.06
2006-04-19 03:00,14.08,214.7,6.87,-8.01,-11.57
2006-04-19 04:00,19.06,231.2,6.81,-14.86,-11.94
2006-04-19 05:00,20.24,227.4,6.81,-14.89,-13.71
2006-04-19 06:00,18.77,229.1,6.81,-14.19,-12.29
2006-04-19 07:00,18.48,212.6,6.81,-9.95,-15.57
2006-04-19 08:00,18.18,215.4,6.78,-10.54,-14.82
2006-04-19 09:00,20.53,203.4,6.74,-8.17,-18.84
2006-04-19 11:00,16.42,190.4,6.74,-2.98,-16.15
2006-04-19 12:00,20.24,189.7,6.74,-3.42,-19.95
2006-04-19 13:00,16.72,197.5,6.78,-5.02,-15.95
2006-04-19 14:00,20.53,210.1,6.81,-10.31,-17.76
2006-04-19 15:00,19.36,205.2,6.78,-8.24,-17.51
2006-04-19 16:00,17.89,225.6,6.81,-12.78,-12.52
2006-04-19 17:00,17.60,234.7,6.81,-14.37,-10.16
2006-04-19 18:00,15.54,229.5,6.84,-11.81,-10.10
2006-04-19 19:00,14.37,200.6,6.90,-5.07,-13.45
2006-04-19 20:00,18.48,191.1,6.87,-3.57,-18.13
2006-04-19 21:00,20.82,185.5,6.87,-2.00,-20.73
2006-04-19 22:00,27.86,177.4,6.84,1.25,-27.84
2006-04-19 23:00,34.02,185.5,6.81,-3.27,-33.87
2006-04-20 00:00,27.57,187.6,6.68,-3.66,-27.33
2006-04-20 01:00,28.45,186.9,6.33,-3.43,-28.24
2006-04-20 02:00,28.16,214.0,6.36,-15.74,-23.34
2006-04-20 03:00,28.16,228.1,6.29,-20.94,-18.82
2006-04-20 04:00,34.32,226.7,6.36,-24.96,-23.55
2006-04-20 05:00,30.80,235.1,6.29,-25.26,-17.62
2006-04-20 06:00,27.86,234.4,6.20,-22.65,-16.22
2006-04-20 07:00,16.13,229.8,6.20,-12.32,-10.41
2006-04-20 08:00,7.33,220.0,6.20,-4.71,-5.62
2006-04-20 09:00,12.61,163.0,6.20,3.68,-12.06
2006-04-20 10:00,12.32,149.0,6.16,6.35,-10.55
2006-04-20 11:00,19.06,147.2,6.23,10.33,-16.02
2006-04-20 12:00,22.88,150.7,6.29,11.19,-19.95
2006-04-20 13:00,20.53,179.2,6.33,0.29,-20.53
2006-04-20 14:00,18.48,194.0,6.29,-4.46,-17.93
2006-04-20 15:00,19.36,203.8,6.33,-7.81,-17.71
2006-04-20 16:00,18.77,223.5,6.45,-12.92,-13.62
2006-04-20 17:00,17.89,236.1,6.68,-14.86,-9.97
2006-04-20 18:00,19.94,247.8,7.00,-18.46,-7.55
2006-04-20 19:00,17.60,265.0,6.97,-17.53,-1.54
2006-04-20 20:00,15.84,253.4,7.03,-15.18,-4.53
2006-04-20 21:00,12.03,252.3,6.78,-11.46,-3.65
2006-04-20 22:00,9.97,229.5,6.94,-7.58,-6.48
2006-04-20 23:00,11.15,185.2,7.10,-1.00,-11.10
2006-04-21 00:00,14.08,178.1,7.03,0.46,-14.07
2006-04-21 01:00,13.20,166.2,6.84,3.15,-12.82
2006-04-21 02:00,7.33,154.2,6.68,3.19,-6.60
2006-04-21 03:00,10.85,170.8,6.78,1.74,-10.71
2006-04-21 04:00,18.77,192.2,6.71,-3.97,-18.35
2006-04-21 05:00,18.48,201.0,6.58,-6.62,-17.25
2006-04-21 06:00,20.82,211.2,6.78,-10.78,-17.82
2006-04-21 07:00,22.00,228.1,6.74,-16.36,-14.70
2006-04-21 08:00,26.69,239.0,6.62,-22.87,-13.76
2006-04-21 09:00,25.52,230.9,6.45,-19.80,-16.10
2006-04-21 10:00,18.77,220.3,6.42,-12.15,-14.31
2006-04-21 11:00,15.54,215.1,6.39,-8.93,-12.73
2006-04-21 12:00,19.36,208.7,6.33,-9.30,-16.98
2006-04-21 13:00,21.12,195.4,6.26,-5.59,-20.36
2006-04-21 14:00,20.53,215.8,6.23,-12.00,-16.66
2006-04-21 15:00,21.70,201.7,6.33,-8.02,-20.17
2006-04-21 16:00,14.37,204.2,6.42,-5.88,-13.11
2006-04-21 17:00,11.15,203.1,6.52,-4.37,-10.25
2006-04-21 18:00,3.23,205.2,6.62,-1.37,-2.92
2006-04-21 19:00,2.64,339.5,6.78,-0.92,2.47
2006-04-21 20:00,11.15,49.1,6.84,8.42,7.30
2006-04-21 21:00,17.01,69.5,6.90,15.93,5.96
2006-04-21 22:00,22.58,102.9,6.84,22.01,-5.04
2006-04-21 23:00,30.80,124.7,6.81,25.32,-17.53
2006-04-22 00:00,33.14,135.2,6.84,23.34,-23.53
2006-04-22 01:00,32.26,151.8,6.84,15.26,-28.42
2006-04-22 02:00,30.21,164.4,6.65,8.11,-29.10
2006-04-22 03:00,44.58,187.3,6.55,-5.65,-44.22
2006-04-22 04:00,47.81,190.8,6.78,-8.95,-46.96
2006-04-22 05:00,43.41,200.3,6.58,-15.05,-40.72
2006-04-22 06:00,41.94,210.5,6.49,-21.28,-36.15
2006-04-22 07:00,29.62,222.4,6.00,-19.99,-21.86
2006-04-22 08:00,22.29,247.8,5.91,-20.63,-8.44
2006-04-22 09:00,22.58,237.6,6.03,-19.06,-12.12
2006-04-22 10:00,15.25,227.4,6.07,-11.22,-10.33
2006-04-22 11:00,12.91,208.0,6.10,-6.06,-11.39
2006-04-22 12:00,12.03,172.2,6.10,1.64,-11.91
2006-04-22 13:00,13.79,195.0,6.10,-3.57,-13.31
2006-04-22 14:00,19.65,194.0,6.23,-4.74,-19.07
2006-04-22 15:00,23.17,185.5,6.26,-2.23,-23.06
2006-04-22 16:00,29.33,197.5,6.23,-8.81,-27.98
2006-04-22 17:00,31.38,201.0,6.29,-11.24,-29.30
2006-04-22 18:00,33.44,208.7,6.29,-16.07,-29.32
2006-04-22 19:00,35.78,216.8,6.39,-21.44,-28.65
2006-04-22 20:00,36.96,221.0,6.45,-24.26,-27.88
2006-04-22 21:00,42.82,214.3,6.33,-24.16,-35.35
2006-04-22 22:00,46.05,211.2,6.20,-23.84,-39.39
2006-04-22 23:00,41.94,197.8,7.03,-12.84,-39.93
2006-04-23 00:00,44.29,197.5,6.52,-13.30,-42.24
2006-04-23 01:00,49.27,188.3,6.26,-7.14,-48.75
2006-04-23 02:00,44.29,183.1,6.36,-2.36,-44.23
2006-04-23 03:00,32.85,190.1,6.55,-5.75,-32.34
2006-04-23 04:00,39.01,177.1,6.62,1.99,-38.96
2006-04-23 05:00,42.24,172.9,6.97,5.25,-41.91
2006-04-23 06:00,40.48,185.2,7.07,-3.65,-40.31
2006-04-23 07:00,39.30,189.4,7.19,-6.41,-38.78
2006-04-23 08:00,38.13,194.7,7.35,-9.65,-36.89
2006-04-23 09:00,31.38,195.7,7.23,-8.50,-30.21
2006-04-23 10:00,26.40,185.9,6.90,-2.70,-26.26
2006-04-23 11:00,16.42,199.6,6.68,-5.50,-15.47
2006-04-23 12:00,24.93,158.4,6.68,9.16,-23.19
2006-04-23 13:00,27.86,160.2,6.52,9.44,-26.22
2006-04-23 14:00,26.10,160.2,6.49,8.84,-24.56
2006-04-23 15:00,17.89,179.9,6.36,0.03,-17.89
2006-04-23 16:00,17.01,172.5,6.39,2.22,-16.87
2006-04-23 17:00,11.44,215.4,6.39,-6.63,-9.32
2006-04-23 18:00,9.97,227.7,6.33,-7.38,-6.71
2006-04-23 19:00,16.72,257.6,6.20,-16.33,-3.59
2006-04-23 20:00,24.64,278.7,6.07,-24.35,3.72
2006-04-23 21:00,23.76,284.3,6.00,-23.02,5.88
2006-04-23 22:00,20.82,299.4,6.33,-18.14,10.23
2006-04-23 23:00,13.49,293.8,6.07,-12.34,5.45
2006-04-24 00:00,23.46,273.8,6.49,-23.41,1.54
2006-04-24 01:00,15.84,247.4,6.33,-14.62,-6.09
2006-04-24 02:00,12.91,225.6,6.23,-9.22,-9.03
2006-04-24 03:00,11.15,215.4,6.13,-6.46,-9.08
2006-04-24 04:00,1.76,163.4,6.10,0.50,-1.69
2006-04-24 05:00,7.33,236.5,6.13,-6.11,-4.05
2006-04-24 06:00,6.45,219.6,6.10,-4.12,-4.97
2006-04-24 07:00,3.81,213.6,6.10,-2.11,-3.17
2006-04-24 08:00,10.27,220.3,6.13,-6.64,-7.83
2006-04-24 09:00,9.39,224.9,6.10,-6.62,-6.65
2006-04-24 10:00,14.96,219.6,6.07,-9.54,-11.52
2006-04-24 11:00,19.36,218.9,5.97,-12.16,-15.06
2006-04-24 12:00,27.57,212.9,6.00,-14.99,-23.14
2006-04-24 13:00,28.16,212.2,6.10,-15.02,-23.82
2006-04-24 14:00,32.56,205.2,6.13,-13.87,-29.46
2006-04-24 15:00,33.44,197.8,6.00,-10.23,-31.83
2006-04-24 16:00,25.81,207.3,6.07,-11.84,-22.93
2006-04-24 17:00,,,,,
2006-04-24 18:00,19.06,197.8,6.03,-5.84,-18.15
2006-04-24 19:00,20.82,206.6,6.10,-9.33,-18.62
2006-04-24 20:00,22.29,219.6,6.20,-14.22,-17.17
2006-04-24 21:00,24.34,233.3,6.26,-19.53,-14.54
2006-04-24 23:00,18.77,220.7,6.42,-12.24,-14.24
2006-04-25 00:00,21.70,226.0,6.42,-15.60,-15.09
2006-04-25 01:00,19.36,192.6,6.23,-4.21,-18.90
2006-04-25 02:00,21.12,172.9,6.20,2.62,-20.95
2006-04-25 03:00,36.08,174.6,5.87,3.38,-35.92
2006-04-25 04:00,35.20,163.4,5.74,10.07,-33.72
2006-04-25 05:00,32.56,157.4,5.81,12.52,-30.05
2006-04-25 06:00,29.62,152.8,5.78,13.53,-26.35
2006-04-25 07:00,28.16,147.9,5.78,14.96,-23.85
2006-04-25 08:00,28.16,148.6,5.78,14.67,-24.03
2006-04-25 09:00,26.98,149.7,5.81,13.63,-23.29
2006-04-25 10:00,26.69,155.3,5.81,11.16,-24.24
2006-04-25 11:00,25.81,164.1,5.84,7.08,-24.82
2006-04-25 12:00,22.58,167.2,5.97,4.99,-22.03
2006-04-25 13:00,22.58,166.2,6.13,5.39,-21.93
2006-04-25 14:00,21.12,190.4,6.45,-3.83,-20.77
2006-04-25 15:00,21.70,187.6,6.52,-2.88,-21.51
2006-04-25 16:00,19.94,180.9,6.39,-0.33,-19.94
2006-04-25 17:00,13.49,172.2,6.07,1.84,-13.37
2006-04-25 18:00,2.93,143.3,6.49,1.75,-2.35
2006-04-25 19:00,11.44,49.4,6.29,8.69,7.44
2006-04-25 20:00,13.20,40.3,6.23,8.54,10.06
2006-04-25 21:00,9.09,73.4,6.20,8.71,2.60
2006-04-25 22:00,19.65,110.3,6.29,18.43,-6.81
2006-04-25 23:00,21.12,135.6,6.23,14.78,-15.09
2006-04-26 00:00,31.38,159.9,6.00,10.81,-29.46
2006-04-26 01:00,49.27,168.6,5.91,9.70,-48.31
2006-04-26 02:00,50.15,177.1,5.91,2.55,-50.09
2006-04-26 03:00,51.33,183.1,5.78,-2.74,-51.25
2006-04-26 04:00,47.22,190.8,5.74,-8.84,-46.39
2006-04-26 05:00,,,,,
2006-04-26 06:00,30.21,205.6,5.45,-13.03,-27.25
2006-04-26 07:00,18.48,217.5,5.39,-11.25,-14.66
2006-04-26 08:00,31.68,240.7,5.58,-27.63,-15.49
2006-04-26 09:00,21.12,247.8,5.58,-19.55,-8.00
2006-04-26 10:00,20.24,274.5,5.58,-20.18,1.58
2006-04-26 11:00,14.66,297.3,5.58,-13.03,6.73
2006-04-26 12:00,12.91,353.5,5.81,-1.45,12.82
2006-04-26 13:00,8.80,27.6,5.84,4.08,7.79
2006-04-26 14:00,12.32,90.6,5.81,12.32,-0.13
2006-04-26 15:00,18.48,102.2,5.78,18.06,-3.90
2006-04-26 16:00,18.48,103.6,5.78,17.96,-4.34
2006-04-26 17:00,22.29,114.8,5.74,20.23,-9.37
2006-04-26 18:00,14.96,126.8,5.68,11.98,-8.96
2006-04-26 19:00,9.97,94.5,5.68,9.94,-0.77
2006-04-26 20:00,12.03,75.8,5.65,11.66,2.95
2006-04-26 21:00,4.69,33.3,5.61,2.57,3.92
2006-04-26 22:00,4.69,21.7,5.61,1.73,4.36
2006-04-26 23:00,5.57,338.8,5.61,-2.01,5.20
2006-04-27 00:00,5.87,350.7,5.65,-0.94,5.79
2006-04-27 01:00,5.28,321.9,5.55,-3.25,4.16
2006-04-27 02:00,4.69,91.6,5.61,4.69,-0.13
2006-04-27 03:00,22.58,89.2,5.61,22.58,0.32
2006-04-27 04:00,26.10,107.1,5.61,24.95,-7.68
2006-04-27 05:00,37.84,117.7,5.68,33.51,-17.56
2006-04-27 06:00,36.37,125.0,5.78,29.78,-20.88
2006-04-27 07:00,,,,,
2006-04-27 08:00,26.10,144.4,5.91,15.20,-21.22
2006-04-27 09:00,19.06,169.3,5.87,3.52,-18.74
2006-04-27 10:00,16.13,184.8,5.84,-1.35,-16.07
2006-04-27 11:00,20.82,217.2,5.81,-12.58,-16.60
2006-04-27 12:00,24.34,241.4,5.78,-21.38,-11.64
2006-04-27 13:00,25.52,268.1,5.65,-25.50,-0.83
2006-04-27 14:00,25.52,281.2,5.78,-25.04,4.94
2006-04-27 15:00,27.86,273.1,5.87,-27.82,1.49
2006-04-27 17:00,22.88,279.4,6.00,-22.57,3.73
2006-04-27 18:00,19.06,288.2,6.13,-18.11,5.95
2006-04-27 19:00,12.03,318.8,6.07,-7.92,9.04
2006-04-27 20:00,14.66,337.1,6.00,-5.72,13.50
2006-04-27 21:00,15.54,354.6,6.03,-1.46,15.48
2006-04-27 22:00,16.13,347.9,6.00,-3.38,15.77
2006-04-27 23:00,10.27,358.8,5.94,-0.21,10.26
2006-04-28 00:00,6.16,313.1,5.91,-4.49,4.21
2006-04-28 01:00,7.63,295.9,5.81,-6.86,3.33
2006-04-28 02:00,5.57,225.6,5.84,-3.98,-3.90
2006-04-28 03:00,11.44,210.8,5.81,-5.86,-9.82
2006-04-28 04:00,14.96,212.2,5.81,-7.98,-12.65
2006-04-28 05:00,15.84,203.1,5.78,-6.21,-14.57
2006-04-28 06:00,20.82,210.5,5.81,-10.56,-17.95
2006-04-28 07:00,14.96,206.6,5.84,-6.70,-13.37
2006-04-28 08:00,20.82,205.6,5.91,-8.98,-18.79
2006-04-28 09:00,19.36,243.5,5.94,-17.33,-8.63
2006-04-28 10:00,27.86,259.0,6.00,-27.35,-5.32
2006-04-28 11:00,29.62,264.3,6.03,-29.48,-2.95
2006-04-28 12:00,38.13,277.6,6.10,-37.79,5.07
2006-04-28 13:00,35.49,276.2,6.23,-35.28,3.85
2006-04-28 14:00,29.33,280.1,6.45,-28.88,5.14
2006-04-28 15:00,18.77,294.5,6.49,-17.08,7.79
2006-04-28 16:00,10.85,292.8,6.58,-10.01,4.20
2006-04-28 17:00,5.87,295.6,6.65,-5.29,2.53
2006-04-28 18:00,2.93,112.4,6.78,2.71,-1.12
2006-04-28 19:00,4.99,143.0,6.87,3.00,-3.98
2006-04-28 20:00,4.11,102.9,6.94,4.00,-0.92
2006-04-28 21:00,4.69,50.2,6.97,3.60,3.01
2006-04-28 22:00,2.93,81.1,6.90,2.90,0.45
2006-04-28 23:00,4.11,163.7,6.84,1.15,-3.94
2006-04-29 00:00,0.88,154.9,6.81,0.37,-0.80
2006-04-29 01:00,3.81,201.7,6.78,-1.41,-3.54
2006-04-29 02:00,8.21,234.4,6.78,-6.68,-4.78
2006-04-29 03:00,13.79,218.2,6.68,-8.53,-10.83
2006-04-29 04:00,15.25,208.4,6.58,-7.25,-13.42
2006-04-29 05:00,17.89,210.5,6.58,-9.08,-15.42
2006-04-29 06:00,24.34,203.1,6.52,-9.55,-22.39
2006-04-29 07:00,23.46,199.9,6.52,-8.00,-22.06
2006-04-29 08:00,19.65,227.4,6.52,-14.46,-13.31
2006-04-29 09:00,21.70,216.8,6.45,-13.00,-17.38
2006-04-29 10:00,17.89,230.5,6.42,-13.81,-11.37
2006-04-29 11:00,17.01,253.7,6.39,-16.33,-4.77
2006-04-29 12:00,17.89,267.1,6.39,-17.87,-0.91
2006-04-29 13:00,19.06,252.7,6.39,-18.20,-5.68
2006-04-29 14:00,16.42,277.6,6.42,-16.28,2.18
2006-04-29 15:00,12.32,253.7,6.45,-11.83,-3.45
2006-04-29 16:00,13.49,253.4,6.58,-12.93,-3.86
2006-04-29 17:00,12.32,254.4,6.68,-11.87,-3.31
2006-04-29 18:00,16.42,249.5,6.81,-15.39,-5.75
2006-04-29 19:00,9.68,213.3,6.74,-5.31,-8.09
2006-04-29 20:00,6.45,218.9,6.74,-4.05,-5.02
2006-04-29 21:00,4.40,187.6,6.71,-0.58,-4.36
2006-04-29 22:00,2.64,124.3,6.74,2.18,-1.49
2006-04-29 23:00,4.11,140.9,6.71,2.59,-3.19
2006-04-30 00:00,9.09,148.2,6.71,4.78,-7.73
2006-04-30 01:00,6.75,160.6,6.58,2.25,-6.36
2006-04-30 02:00,9.97,185.5,6.58,-0.96,-9.93
2006-04-30 03:00,13.79,174.6,6.62,1.29,-13.72
2006-04-30 04:00,18.48,184.1,6.62,-1.32,-18.43
2006-04-30 05:00,21.70,173.9,6.58,2.30,-21.58
2006-04-30 06:00,25.22,172.5,6.55,3.29,-25.01
2006-04-30 07:00,25.81,177.4,6.58,1.16,-25.78
2006-04-30 08:00,23.17,184.1,6.58,-1.66,-23.11
2006-04-30 09:00,20.24,184.1,6.58,-1.45,-20.19
2006-04-30 11:00,12.03,220.3,6.55,-7.78,-9.17
2006-04-30 12:00,10.56,205.2,6.52,-4.50,-9.55
2006-04-30 13:00,12.61,273.1,6.55,-12.59,0.67
2006-04-30 14:00,16.72,286.1,6.74,-16.06,4.63
2006-04-30 15:00,16.72,285.4,6.84,-16.12,4.43
2006-04-30 16:00,16.42,292.4,7.07,-15.18,6.26
2006-04-30 17:00,6.45,297.7,7.19,-5.71,3.00
2006-04-30 18:00,8.21,282.9,7.48,-8.00,1.84
2006-04-30 19:00,9.97,345.1,7.67,-2.56,9.64
2006-04-30 20:00,10.27,32.9,7.58,5.58,8.62
2006-04-30 21:00,13.79,47.3,7.55,10.14,9.34
2006-04-30 22:00,14.66,67.0,7.51,13.50,5.72
2006-04-30 23:00,16.42,82.1,7.61,16.27,2.24
2006-05-01 00:00,13.20,88.1,7.71,13.19,0.43
2006-05-01 01:00,14.08,79.7,7.67,13.85,2.52
2006-05-01 02:00,12.91,99.4,7.80,12.73,-2.10
2006-05-01 03:00,14.37,117.0,7.80,12.81,-6.51
2006-05-01 04:00,16.13,127.5,7.83,12.80,-9.82
2006-05-01 05:00,26.40,149.0,7.83,13.61,-22.62
2006-05-01 06:00,24.64,169.3,7.42,4.56,-24.21
2006-05-01 07:00,20.82,187.6,7.29,-2.76,-20.64
2006-05-01 08:00,23.76,197.1,7.26,-6.99,-22.70
2006-05-01 09:00,16.13,211.9,7.23,-8.52,-13.70
2006-05-01 10:00,19.94,207.3,7.29,-9.15,-17.72
2006-05-01 11:00,9.97,228.1,7.19,-7.42,-6.66
2006-05-01 12:00,11.44,209.8,7.13,-5.68,-9.93
2006-05-01 13:00,9.39,221.7,7.07,-6.25,-7.00
2006-05-01 14:00,11.73,250.9,7.03,-11.09,-3.84
2006-05-01 15:00,16.42,220.3,7.03,-10.63,-12.52
2006-05-01 16:00,15.25,252.7,7.16,-14.56,-4.54
2006-05-01 17:00,17.89,241.8,7.16,-15.76,-8.46
2006-05-01 18:00,16.42,215.4,7.16,-9.52,-13.39
2006-05-01 19:00,8.80,215.4,7.13,-5.10,-7.17
2006-05-01 20:00,12.91,194.0,7.13,-3.11,-12.52
2006-05-01 21:00,,,,,
2006-05-01 22:00,10.85,172.2,7.13,1.48,-10.75